QPF
0.00 0.00 0.00 0.00 0.00 0.00 0.00 0.00 0.01 0.02 0.03 0.03 0.03 0.03 0.04 0.04 0.04 0.05 0.05 0.05 0.04 0.04 0.05 0.06 0.09 0.10 0.10 0.10 0.09 0.09 0.09 0.06 0.04 0.05 0.06 0.05 0.04 0.04 0.03 0.04 0.03 0.03 0.04
0.00 0.00 0.00 0.00 0.00 0.00 0.00 0.00 0.00 0.02 0.02 0.03 0.04 0.04 0.04 0.03 0.03 0.03 0.06 0.06 0.05 0.06 0.06 0.09 0.11 0.12 0.11 0.11 0.09 0.08 0.07 0.05 0.04 0.06 0.09 0.11 0.11 0.08 0.04 0.03 0.03 0.04 0.04
0.00 0.00 0.00 0.00 0.00 0.00 0.00 0.00 0.01 0.02 0.03 0.04 0.04 0.05 0.05 0.04 0.03 0.03 0.04 0.06 0.07 0.07 0.09 0.11 0.13 0.15 0.12 0.11 0.09 0.08 0.07 0.06 0.05 0.06 0.08 0.09 0.11 0.10 0.07 0.05 0.04 0.05 0.05
0.00 0.00 0.00 0.00 0.01 0.01 0.00 0.01 0.03 0.03 0.03 0.03 0.04 0.06 0.05 0.04 0.04 0.04 0.03 0.05 0.07 0.10 0.12 0.12 0.13 0.14 0.14 0.11 0.08 0.07 0.07 0.07 0.07 0.07 0.06 0.06 0.08 0.10 0.10 0.08 0.07 0.06 0.06
0.00 0.00 0.00 0.00 0.01 0.01 0.01 0.02 0.03 0.03 0.04 0.04 0.04 0.04 0.04 0.05 0.04 0.05 0.06 0.06 0.07 0.09 0.11 0.11 0.11 0.10 0.12 0.10 0.09 0.09 0.05 0.05 0.05 0.05 0.04 0.05 0.06 0.07 0.09 0.09 0.08 0.06 0.05
0.01 0.01 0.01 0.02 0.02 0.01 0.01 0.01 0.01 0.01 0.02 0.02 0.01 0.01 0.03 0.05 0.05 0.07 0.07 0.06 0.06 0.06 0.07 0.07 0.06 0.06 0.07 0.08 0.09 0.08 0.06 0.05 0.05 0.04 0.02 0.02 0.03 0.04 0.06 0.06 0.06 0.06 0.06
0.03 0.02 0.02 0.02 0.02 0.00 0.00 0.01 0.01 0.01 0.01 0.01 0.02 0.02 0.03 0.04 0.05 0.05 0.06 0.06 0.05 0.06 0.06 0.06 0.05 0.05 0.06 0.06 0.07 0.08 0.06 0.04 0.04 0.03 0.03 0.02 0.02 0.03 0.04 0.05 0.05 0.05 0.04
0.02 0.03 0.02 0.02 0.02 0.01 0.00 0.00 0.02 0.02 0.03 0.04 0.04 0.05 0.04 0.04 0.04 0.05 0.06 0.05 0.04 0.03 0.04 0.04 0.04 0.05 0.05 0.05 0.06 0.05 0.04 0.05 0.05 0.04 0.04 0.04 0.03 0.03 0.04 0.05 0.06 0.06 0.05
0.01 0.02 0.02 0.05 0.08 0.05 0.02 0.01 0.02 0.03 0.03 0.04 0.05 0.07 0.07 0.07 0.06 0.05 0.05 0.05 0.04 0.03 0.05 0.03 0.04 0.04 0.05 0.05 0.05 0.04 0.04 0.05 0.05 0.04 0.04 0.04 0.03 0.03 0.03 0.03 0.04 0.06 0.06
0.00 0.01 0.01 0.04 0.08 0.07 0.07 0.07 0.06 0.06 0.03 0.03 0.04 0.06 0.07 0.06 0.05 0.05 0.05 0.05 0.06 0.04 0.03 0.04 0.04 0.04 0.05 0.07 0.07 0.06 0.06 0.06 0.05 0.04 0.04 0.04 0.04 0.04 0.04 0.04 0.05 0.06 0.07
0.00 0.00 0.00 0.00 0.02 0.02 0.03 0.05 0.07 0.06 0.02 0.02 0.03 0.03 0.03 0.04 0.04 0.03 0.05 0.05 0.04 0.04 0.03 0.02 0.03 0.03 0.04 0.06 0.06 0.06 0.06 0.06 0.05 0.04 0.03 0.03 0.03 0.04 0.03 0.03 0.04 0.05 0.06
0.01 0.01 0.00 0.00 0.00 0.01 0.02 0.02 0.01 0.01 0.01 0.01 0.02 0.02 0.02 0.03 0.02 0.03 0.04 0.03 0.04 0.04 0.03 0.03 0.03 0.03 0.03 0.03 0.04 0.04 0.05 0.05 0.04 0.03 0.03 0.02 0.03 0.03 0.02 0.02 0.02 0.03 0.04
0.01 0.01 0.01 0.01 0.02 0.01 0.01 0.01 0.01 0.01 0.02 0.02 0.02 0.03 0.04 0.04 0.04 0.04 0.05 0.04 0.04 0.03 0.02 0.03 0.03 0.04 0.03 0.03 0.03 0.03 0.04 0.04 0.04 0.04 0.04 0.04 0.03 0.03 0.03 0.03 0.02 0.02 0.02
0.01 0.02 0.02 0.02 0.02 0.02 0.01 0.01 0.01 0.01 0.02 0.02 0.03 0.03 0.04 0.05 0.05 0.05 0.06 0.06 0.06 0.04 0.03 0.02 0.04 0.05 0.05 0.04 0.03 0.03 0.03 0.03 0.04 0.04 0.03 0.03 0.03 0.03 0.02 0.02 0.03 0.03 0.03
0.04 0.03 0.02 0.02 0.03 0.03 0.02 0.01 0.00 0.00 0.01 0.01 0.01 0.02 0.03 0.05 0.08 0.12 0.11 0.08 0.08 0.06 0.05 0.04 0.05 0.05 0.05 0.04 0.04 0.04 0.04 0.05 0.04 0.03 0.03 0.03 0.02 0.01 0.01 0.01 0.02 0.02 0.02
0.02 0.02 0.02 0.03 0.03 0.04 0.03 0.01 0.01 0.00 0.00 0.00 0.01 0.02 0.02 0.04 0.06 0.07 0.08 0.08 0.08 0.07 0.06 0.05 0.05 0.05 0.03 0.04 0.04 0.04 0.05 0.05 0.05 0.04 0.04 0.05 0.05 0.03 0.01 0.01 0.01 0.01 0.02
0.01 0.01 0.01 0.02 0.03 0.04 0.04 0.03 0.02 0.01 0.01 0.01 0.01 0.02 0.02 0.03 0.04 0.05 0.06 0.06 0.06 0.07 0.07 0.06 0.06 0.05 0.04 0.04 0.05 0.04 0.03 0.04 0.04 0.04 0.03 0.03 0.03 0.04 0.03 0.02 0.02 0.02 0.02
0.00 0.01 0.01 0.01 0.02 0.03 0.03 0.03 0.02 0.02 0.01 0.01 0.01 0.01 0.02 0.03 0.03 0.04 0.05 0.06 0.06 0.07 0.07 0.05 0.05 0.05 0.05 0.05 0.05 0.04 0.02 0.03 0.04 0.04 0.04 0.04 0.04 0.04 0.05 0.05 0.05 0.04 0.03
0.00 0.00 0.01 0.01 0.03 0.03 0.04 0.03 0.03 0.03 0.02 0.01 0.01 0.01 0.01 0.02 0.02 0.03 0.04 0.06 0.07 0.08 0.08 0.08 0.07 0.07 0.07 0.08 0.05 0.03 0.02 0.03 0.02 0.02 0.03 0.03 0.02 0.04 0.04 0.05 0.06 0.06 0.06
0.00 0.00 0.00 0.01 0.03 0.07 0.08 0.08 0.07 0.06 0.04 0.03 0.02 0.02 0.01 0.01 0.01 0.02 0.03 0.05 0.06 0.08 0.09 0.09 0.07 0.07 0.07 0.06 0.05 0.05 0.04 0.03 0.02 0.02 0.03 0.03 0.03 0.03 0.03 0.02 0.03 0.03 0.04
0.00 0.01 0.01 0.01 0.02 0.05 0.05 0.06 0.07 0.06 0.05 0.05 0.04 0.04 0.02 0.01 0.02 0.03 0.04 0.04 0.05 0.05 0.05 0.05 0.05 0.04 0.04 0.03 0.02 0.02 0.02 0.02 0.02 0.02 0.03 0.03 0.02 0.01 0.01 0.02 0.02 0.02 0.03
0.01 0.01 0.01 0.02 0.02 0.04 0.05 0.04 0.05 0.06 0.06 0.05 0.05 0.06 0.05 0.04 0.04 0.04 0.04 0.03 0.05 0.04 0.03 0.03 0.02 0.02 0.03 0.02 0.01 0.01 0.01 0.01 0.01 0.02 0.03 0.03 0.03 0.02 0.02 0.02 0.02 0.02 0.02
0.01 0.01 0.02 0.02 0.03 0.03 0.04 0.04 0.04 0.05 0.06 0.07 0.06 0.07 0.08 0.08 0.06 0.04 0.05 0.04 0.04 0.04 0.03 0.02 0.02 0.02 0.03 0.02 0.01 0.01 0.01 0.01 0.01 0.01 0.02 0.02 0.02 0.02 0.02 0.03 0.03 0.03 0.02
0.02 0.02 0.02 0.02 0.03 0.03 0.03 0.04 0.04 0.05 0.06 0.07 0.08 0.11 0.11 0.12 0.12 0.09 0.05 0.03 0.03 0.02 0.02 0.02 0.02 0.02 0.02 0.02 0.02 0.01 0.01 0.01 0.01 0.01 0.01 0.01 0.02 0.02 0.02 0.02 0.02 0.02 0.02
0.02 0.02 0.02 0.03 0.03 0.03 0.03 0.03 0.03 0.03 0.03 0.05 0.05 0.05 0.06 0.07 0.08 0.07 0.04 0.02 0.02 0.02 0.02 0.02 0.02 0.03 0.03 0.03 0.03 0.02 0.02 0.01 0.01 0.01 0.01 0.01 0.01 0.01 0.02 0.02 0.02 0.02 0.03
0.02 0.02 0.02 0.02 0.02 0.02 0.03 0.02 0.03 0.03 0.03 0.03 0.04 0.04 0.04 0.04 0.04 0.04 0.03 0.02 0.02 0.02 0.02 0.02 0.02 0.03 0.03 0.03 0.03 0.03 0.02 0.01 0.01 0.01 0.01 0.01 0.02 0.02 0.03 0.04 0.05 0.05 0.05
MSLP
1007.65 1007.71 1007.73 1007.74 1007.82 1007.99 1008.28 1008.69 1009.19 1009.73 1010.24 1010.66 1010.95 1011.10 1011.10 1011.01 1010.87 1010.75 1010.69 1010.72 1010.86 1011.10 1011.43 1011.83 1012.26 1012.70 1013.16 1013.62 1014.09 1014.57 1015.04 1015.51 1015.96 1016.36 1016.70 1016.96 1017.15 1017.26 1017.31 1017.34 1017.38 1017.45 1017.56
1006.89 1007.08 1007.23 1007.35 1007.49 1007.70 1008.01 1008.43 1008.93 1009.47 1009.99 1010.43 1010.74 1010.89 1010.90 1010.80 1010.64 1010.50 1010.41 1010.43 1010.58 1010.85 1011.22 1011.66 1012.14 1012.63 1013.12 1013.59 1014.05 1014.50 1014.96 1015.42 1015.87 1016.29 1016.67 1016.99 1017.23 1017.39 1017.48 1017.53 1017.56 1017.61 1017.70
1005.76 1006.09 1006.38 1006.63 1006.88 1007.17 1007.53 1007.97 1008.50 1009.06 1009.60 1010.06 1010.40 1010.58 1010.61 1010.51 1010.35 1010.19 1010.09 1010.11 1010.26 1010.55 1010.95 1011.43 1011.96 1012.48 1012.98 1013.45 1013.90 1014.33 1014.76 1015.19 1015.64 1016.08 1016.50 1016.87 1017.18 1017.41 1017.57 1017.66 1017.72 1017.77 1017.84
1004.33 1004.77 1005.19 1005.57 1005.93 1006.32 1006.75 1007.25 1007.81 1008.41 1008.99 1009.50 1009.89 1010.12 1010.20 1010.14 1010.00 1009.85 1009.75 1009.76 1009.92 1010.22 1010.64 1011.16 1011.71 1012.26 1012.77 1013.24 1013.67 1014.06 1014.46 1014.87 1015.29 1015.74 1016.19 1016.61 1016.99 1017.30 1017.53 1017.68 1017.78 1017.85 1017.92
1002.75 1003.25 1003.76 1004.24 1004.71 1005.17 1005.67 1006.23 1006.85 1007.50 1008.14 1008.73 1009.19 1009.51 1009.66 1009.66 1009.57 1009.45 1009.38 1009.40 1009.57 1009.87 1010.31 1010.84 1011.41 1011.98 1012.50 1012.96 1013.37 1013.74 1014.10 1014.47 1014.87 1015.31 1015.77 1016.22 1016.65 1017.03 1017.33 1017.55 1017.70 1017.80 1017.89
1001.22 1001.72 1002.26 1002.78 1003.30 1003.82 1004.37 1004.97 1005.64 1006.35 1007.07 1007.74 1008.30 1008.72 1008.97 1009.07 1009.06 1009.00 1008.97 1009.01 1009.18 1009.50 1009.94 1010.48 1011.06 1011.64 1012.17 1012.63 1013.03 1013.37 1013.70 1014.03 1014.40 1014.81 1015.26 1015.73 1016.19 1016.61 1016.97 1017.25 1017.46 1017.61 1017.72
999.93 1000.36 1000.86 1001.36 1001.87 1002.39 1002.95 1003.57 1004.26 1005.02 1005.81 1006.57 1007.24 1007.78 1008.15 1008.37 1008.45 1008.47 1008.49 1008.56 1008.75 1009.07 1009.51 1010.06 1010.65 1011.23 1011.78 1012.25 1012.64 1012.98 1013.28 1013.57 1013.90 1014.27 1014.69 1015.15 1015.62 1016.07 1016.47 1016.80 1017.06 1017.26 1017.41
999.03 999.33 999.72 1000.14 1000.57 1001.03 1001.55 1002.15 1002.84 1003.62 1004.46 1005.29 1006.06 1006.70 1007.20 1007.53 1007.72 1007.83 1007.90 1008.02 1008.23 1008.55 1009.00 1009.55 1010.15 1010.76 1011.33 1011.82 1012.23 1012.57 1012.85 1013.12 1013.41 1013.74 1014.12 1014.55 1015.00 1015.46 1015.88 1016.25 1016.56 1016.81 1017.00
998.55 998.70 998.93 999.22 999.53 999.89 1000.32 1000.85 1001.50 1002.27 1003.11 1003.98 1004.82 1005.55 1006.15 1006.58 1006.87 1007.06 1007.20 1007.36 1007.60 1007.94 1008.40 1008.97 1009.60 1010.23 1010.84 1011.37 1011.82 1012.17 1012.47 1012.72 1012.98 1013.27 1013.60 1013.98 1014.40 1014.84 1015.27 1015.67 1016.01 1016.30 1016.55
998.46 998.45 998.52 998.65 998.81 999.04 999.35 999.77 1000.35 1001.06 1001.87 1002.74 1003.60 1004.38 1005.04 1005.55 1005.92 1006.18 1006.38 1006.60 1006.87 1007.25 1007.74 1008.34 1009.00 1009.68 1010.34 1010.93 1011.42 1011.82 1012.14 1012.40 1012.63 1012.88 1013.17 1013.50 1013.88 1014.29 1014.71 1015.11 1015.48 1015.81 1016.10
998.64 998.50 998.44 998.41 998.43 998.51 998.69 999.00 999.47 1000.09 1000.83 1001.65 1002.48 1003.26 1003.94 1004.49 1004.91 1005.23 1005.49 1005.76 1006.09 1006.52 1007.05 1007.70 1008.41 1009.16 1009.88 1010.53 1011.09 1011.55 1011.90 1012.17 1012.40 1012.62 1012.86 1013.14 1013.47 1013.84 1014.24 1014.64 1015.02 1015.38 1015.71
998.93 998.72 998.55 998.42 998.32 998.28 998.34 998.54 998.89 999.40 1000.04 1000.77 1001.54 1002.27 1002.93 1003.48 1003.92 1004.29 1004.61 1004.94 1005.33 1005.82 1006.41 1007.12 1007.90 1008.71 1009.49 1010.22 1010.84 1011.35 1011.74 1012.03 1012.26 1012.46 1012.67 1012.91 1013.19 1013.51 1013.88 1014.26 1014.65 1015.03 1015.39
999.22 998.99 998.78 998.58 998.40 998.28 998.25 998.35 998.60 998.99 999.52 1000.14 1000.81 1001.46 1002.07 1002.59 1003.04 1003.44 1003.81 1004.20 1004.66 1005.22 1005.88 1006.65 1007.48 1008.35 1009.19 1009.97 1010.64 1011.19 1011.62 1011.94 1012.17 1012.36 1012.55 1012.75 1012.99 1013.27 1013.60 1013.97 1014.35 1014.74 1015.12
999.43 999.23 999.03 998.81 998.61 998.45 998.37 998.39 998.56 998.85 999.27 999.77 1000.32 1000.88 1001.41 1001.90 1002.34 1002.75 1003.17 1003.62 1004.15 1004.76 1005.49 1006.30 1007.18 1008.08 1008.95 1009.75 1010.45 1011.03 1011.48 1011.81 1012.06 1012.25 1012.42 1012.60 1012.81 1013.06 1013.37 1013.72 1014.09 1014.48 1014.86
999.59 999.44 999.27 999.08 998.88 998.72 998.62 998.61 998.71 998.93 999.24 999.64 1000.08 1000.54 1001.00 1001.44 1001.86 1002.29 1002.74 1003.24 1003.81 1004.47 1005.23 1006.07 1006.95 1007.84 1008.71 1009.50 1010.20 1010.77 1011.23 1011.57 1011.82 1012.02 1012.20 1012.38 1012.58 1012.83 1013.12 1013.46 1013.82 1014.21 1014.59
999.73 999.65 999.52 999.36 999.20 999.06 998.97 998.95 999.01 999.17 999.40 999.70 1000.05 1000.43 1000.82 1001.21 1001.62 1002.05 1002.51 1003.04 1003.64 1004.32 1005.07 1005.89 1006.74 1007.58 1008.39 1009.14 1009.79 1010.34 1010.78 1011.13 1011.41 1011.63 1011.83 1012.03 1012.26 1012.52 1012.81 1013.15 1013.52 1013.90 1014.29
999.94 999.89 999.80 999.68 999.56 999.44 999.37 999.35 999.39 999.51 999.69 999.92 1000.19 1000.50 1000.83 1001.19 1001.57 1001.99 1002.46 1002.99 1003.58 1004.24 1004.95 1005.70 1006.47 1007.22 1007.94 1008.60 1009.19 1009.69 1010.12 1010.47 1010.77 1011.04 1011.29 1011.55 1011.82 1012.11 1012.44 1012.79 1013.17 1013.56 1013.95
1000.27 1000.24 1000.16 1000.06 999.94 999.85 999.78 999.76 999.80 999.89 1000.03 1000.21 1000.43 1000.69 1000.97 1001.29 1001.65 1002.05 1002.50 1003.01 1003.56 1004.16 1004.79 1005.44 1006.09 1006.72 1007.32 1007.88 1008.39 1008.84 1009.25 1009.62 1009.96 1010.29 1010.61 1010.94 1011.28 1011.63 1012.01 1012.39 1012.79 1013.19 1013.59
1000.72 1000.67 1000.58 1000.47 1000.35 1000.25 1000.18 1000.16 1000.18 1000.24 1000.35 1000.50 1000.68 1000.89 1001.15 1001.43 1001.76 1002.14 1002.55 1003.01 1003.50 1004.01 1004.54 1005.06 1005.58 1006.09 1006.56 1007.02 1007.45 1007.87 1008.27 1008.66 1009.06 1009.46 1009.87 1010.28 1010.70 1011.13 1011.56 1011.99 1012.41 1012.83 1013.23
1001.25 1001.16 1001.04 1000.89 1000.74 1000.62 1000.53 1000.48 1000.48 1000.52 1000.59 1000.71 1000.86 1001.04 1001.26 1001.52 1001.82 1002.15 1002.52 1002.91 1003.32 1003.74 1004.16 1004.57 1004.97 1005.36 1005.74 1006.12 1006.50 1006.89 1007.30 1007.74 1008.20 1008.67 1009.16 1009.66 1010.16 1010.65 1011.13 1011.60 1012.05 1012.48 1012.89
1001.77 1001.63 1001.46 1001.26 1001.08 1000.91 1000.78 1000.70 1000.66 1000.67 1000.71 1000.79 1000.91 1001.07 1001.26 1001.49 1001.74 1002.03 1002.35 1002.68 1003.01 1003.35 1003.68 1004.00 1004.31 1004.63 1004.94 1005.28 1005.65 1006.05 1006.49 1006.96 1007.48 1008.02 1008.58 1009.13 1009.69 1010.22 1010.73 1011.22 1011.68 1012.12 1012.53
1002.17 1001.99 1001.77 1001.53 1001.30 1001.09 1000.92 1000.79 1000.70 1000.67 1000.67 1000.72 1000.81 1000.93 1001.09 1001.28 1001.50 1001.74 1002.01 1002.28 1002.56 1002.84 1003.12 1003.39 1003.67 1003.95 1004.26 1004.60 1004.99 1005.42 1005.90 1006.42 1006.97 1007.55 1008.14 1008.72 1009.28 1009.82 1010.34 1010.82 1011.28 1011.71 1012.12
1002.39 1002.18 1001.93 1001.66 1001.39 1001.13 1000.91 1000.74 1000.61 1000.52 1000.48 1000.49 1000.53 1000.61 1000.73 1000.88 1001.06 1001.27 1001.49 1001.73 1001.98 1002.24 1002.50 1002.78 1003.07 1003.39 1003.74 1004.13 1004.56 1005.04 1005.55 1006.10 1006.67 1007.25 1007.82 1008.37 1008.90 1009.40 1009.88 1010.33 1010.77 1011.19 1011.60
1002.41 1002.19 1001.92 1001.63 1001.33 1001.04 1000.79 1000.56 1000.39 1000.25 1000.16 1000.12 1000.11 1000.15 1000.22 1000.33 1000.47 1000.64 1000.84 1001.06 1001.30 1001.57 1001.86 1002.18 1002.53 1002.92 1003.35 1003.82 1004.32 1004.84 1005.39 1005.94 1006.49 1007.02 1007.53 1008.00 1008.45 1008.87 1009.28 1009.68 1010.08 1010.49 1010.90
1002.25 1002.04 1001.77 1001.47 1001.16 1000.85 1000.56 1000.30 1000.08 999.89 999.75 999.65 999.60 999.58 999.60 999.66 999.76 999.90 1000.07 1000.28 1000.54 1000.84 1001.18 1001.58 1002.02 1002.50 1003.03 1003.58 1004.15 1004.72 1005.28 1005.81 1006.30 1006.75 1007.15 1007.51 1007.85 1008.17 1008.49 1008.82 1009.19 1009.58 1010.01
1002.00 1001.80 1001.54 1001.25 1000.93 1000.61 1000.30 1000.00 999.73 999.50 999.31 999.15 999.04 998.96 998.93 998.93 998.99 999.09 999.24 999.45 999.72 1000.05 1000.46 1000.93 1001.46 1002.04 1002.66 1003.29 1003.91 1004.51 1005.06 1005.54 1005.96 1006.30 1006.58 1006.82 1007.03 1007.24 1007.48 1007.76 1008.10 1008.50 1008.96
Thickness
5847 5845 5841 5837 5831 5825 5819 5814 5810 5807 5805 5801 5797 5793 5792 5793 5792 5792 5790 5789 5787 5786 5784 5783 5781 5780 5778 5775 5774 5773 5771 5770 5771 5767 5765 5768 5771 5770 5768 5767 5766 5765 5763
5845 5842 5840 5837 5832 5825 5820 5815 5811 5808 5805 5802 5799 5796 5794 5793 5792 5791 5789 5788 5787 5785 5785 5782 5780 5778 5776 5774 5773 5771 5768 5769 5770 5765 5759 5754 5757 5763 5769 5766 5764 5764 5763
5845 5842 5840 5837 5833 5827 5822 5818 5813 5809 5806 5804 5800 5798 5794 5792 5790 5788 5787 5787 5785 5784 5783 5781 5779 5777 5775 5772 5771 5770 5768 5765 5767 5768 5761 5751 5746 5752 5760 5763 5763 5762 5761
5852 5846 5842 5838 5835 5831 5826 5822 5816 5811 5807 5804 5800 5794 5789 5786 5787 5787 5786 5785 5784 5783 5781 5779 5778 5776 5774 5772 5771 5770 5769 5766 5762 5765 5766 5763 5758 5750 5747 5754 5759 5760 5759
5856 5850 5846 5842 5839 5836 5830 5824 5818 5812 5808 5805 5801 5796 5792 5790 5789 5788 5784 5783 5782 5782 5780 5778 5776 5775 5773 5771 5770 5769 5767 5766 5763 5762 5762 5761 5759 5758 5749 5744 5749 5753 5756
5858 5853 5849 5845 5840 5837 5832 5826 5817 5812 5809 5805 5801 5797 5793 5789 5786 5783 5781 5780 5780 5780 5779 5777 5775 5773 5772 5770 5768 5767 5765 5764 5763 5762 5761 5758 5755 5753 5752 5747 5746 5747 5751
5858 5852 5846 5840 5838 5836 5832 5826 5818 5811 5808 5805 5801 5798 5794 5791 5786 5783 5781 5779 5778 5777 5776 5776 5773 5771 5770 5768 5767 5765 5763 5762 5760 5759 5759 5759 5758 5758 5755 5750 5746 5745 5748
5858 5853 5847 5842 5839 5836 5832 5826 5819 5812 5809 5805 5801 5798 5795 5792 5789 5785 5783 5780 5779 5778 5776 5774 5772 5770 5768 5767 5765 5763 5761 5760 5758 5758 5757 5756 5757 5757 5755 5751 5745 5740 5741
5857 5852 5847 5842 5837 5833 5830 5826 5819 5813 5809 5806 5802 5798 5795 5792 5789 5786 5784 5781 5780 5778 5776 5773 5770 5768 5766 5764 5762 5760 5758 5757 5756 5755 5754 5753 5755 5755 5755 5753 5749 5739 5732
5854 5851 5847 5843 5838 5832 5829 5827 5820 5813 5810 5807 5803 5799 5795 5792 5789 5786 5782 5780 5779 5777 5774 5771 5768 5765 5763 5761 5759 5757 5756 5754 5753 5752 5751 5750 5751 5752 5752 5751 5749 5745 5738
5850 5848 5846 5843 5839 5835 5831 5825 5819 5814 5809 5807 5803 5799 5795 5792 5789 5785 5782 5780 5778 5775 5772 5769 5766 5763 5761 5759 5756 5754 5753 5751 5749 5749 5748 5747 5747 5746 5746 5746 5745 5743 5739
5846 5846 5843 5840 5836 5832 5828 5822 5818 5813 5810 5807 5803 5799 5795 5791 5787 5783 5781 5778 5775 5772 5769 5767 5763 5761 5758 5756 5753 5751 5750 5748 5746 5745 5744 5744 5744 5742 5741 5741 5740 5739 5738
5836 5839 5838 5834 5831 5827 5824 5820 5817 5814 5810 5806 5801 5797 5793 5789 5785 5782 5779 5776 5773 5769 5767 5763 5760 5758 5756 5753 5751 5749 5747 5745 5744 5742 5740 5740 5739 5738 5737 5736 5735 5735 5735
5833 5832 5830 5826 5824 5822 5818 5815 5813 5812 5808 5803 5798 5794 5790 5787 5783 5780 5777 5773 5770 5766 5763 5760 5758 5756 5754 5751 5749 5747 5744 5742 5741 5740 5739 5738 5736 5735 5733 5733 5731 5730 5728
5824 5823 5822 5819 5817 5815 5812 5810 5808 5808 5805 5799 5794 5791 5788 5785 5781 5777 5773 5770 5767 5764 5761 5758 5755 5753 5751 5749 5746 5743 5742 5739 5737 5737 5736 5736 5735 5733 5731 5730 5727 5725 5723
5816 5817 5816 5814 5811 5808 5806 5804 5803 5802 5800 5794 5790 5788 5785 5781 5778 5774 5770 5766 5763 5761 5758 5754 5752 5749 5749 5746 5743 5741 5739 5738 5736 5733 5733 5733 5732 5730 5728 5726 5724 5721 5718
5808 5809 5809 5808 5807 5805 5803 5799 5799 5798 5794 5789 5786 5784 5780 5777 5774 5771 5767 5763 5760 5757 5753 5751 5748 5745 5743 5742 5740 5737 5736 5735 5734 5732 5731 5731 5731 5728 5725 5723 5721 5719 5717
5800 5802 5804 5803 5803 5802 5800 5797 5795 5792 5788 5784 5781 5779 5776 5772 5769 5766 5763 5759 5756 5753 5750 5747 5746 5744 5741 5739 5737 5734 5733 5732 5731 5730 5728 5726 5725 5725 5722 5720 5718 5717 5715
5793 5795 5798 5798 5797 5795 5793 5790 5787 5785 5781 5778 5775 5774 5772 5768 5764 5761 5758 5756 5752 5749 5747 5745 5743 5740 5738 5735 5733 5731 5730 5728 5727 5727 5726 5724 5722 5720 5718 5716 5714 5712 5711
5787 5788 5790 5789 5786 5786 5784 5779 5778 5775 5773 5773 5772 5770 5768 5764 5760 5757 5755 5752 5749 5746 5745 5742 5741 5739 5735 5732 5729 5726 5726 5724 5723 5723 5722 5721 5718 5716 5714 5711 5709 5706 5706
5776 5778 5778 5775 5774 5776 5773 5768 5768 5767 5769 5769 5766 5764 5762 5760 5757 5753 5751 5748 5745 5742 5740 5739 5738 5736 5734 5730 5726 5723 5722 5721 5720 5719 5718 5717 5714 5711 5708 5706 5703 5702 5700
5763 5765 5763 5763 5764 5765 5763 5760 5759 5762 5763 5761 5758 5756 5755 5754 5753 5748 5745 5743 5740 5737 5735 5734 5732 5732 5731 5727 5723 5719 5717 5717 5714 5713 5714 5712 5708 5705 5702 5700 5699 5696 5694
5750 5752 5751 5751 5753 5755 5755 5752 5751 5753 5753 5751 5750 5748 5747 5747 5746 5743 5739 5737 5735 5733 5731 5730 5727 5727 5727 5724 5720 5715 5712 5710 5708 5709 5707 5705 5702 5699 5696 5694 5692 5690 5688
5737 5740 5739 5738 5739 5742 5744 5745 5744 5744 5742 5740 5740 5740 5738 5738 5738 5736 5734 5732 5730 5728 5727 5725 5724 5723 5722 5720 5715 5711 5707 5704 5702 5701 5700 5698 5696 5694 5692 5690 5687 5685 5684
5727 5728 5728 5728 5729 5731 5733 5735 5735 5734 5732 5732 5731 5731 5732 5731 5730 5729 5729 5728 5727 5726 5723 5722 5721 5718 5716 5715 5711 5708 5705 5702 5699 5696 5694 5692 5690 5688 5687 5686 5684 5682 5680
5715 5715 5716 5717 5719 5720 5721 5724 5725 5724 5723 5722 5723 5725 5725 5725 5725 5724 5723 5723 5722 5721 5719 5717 5716 5715 5712 5710 5706 5703 5700 5697 5694 5690 5688 5687 5685 5685 5684 5682 5680 5678 5676